Time,TemperatureF,DewpointF,PressureIn,WindDirection,WindDirectionDegrees,WindSpeedMPH,WindSpeedGustMPH,Humidity,HourlyPrecipIn,Conditions,Clouds,dailyrainin,SoftwareType,DateUTC
2013-10-09 00:09:00,71.9,41.0,29.64,SSE,165,6.0,-999.0,33,-99.99,,,0.00,weatherlink.com 1.10,2013-10-09 07:09:00,
2013-10-09 00:24:00,72.8,44.0,29.64,SSE,166,4.0,-999.0,36,-99.99,,,0.00,weatherlink.com 1.10,2013-10-09 07:24:00,
2013-10-09 00:40:00,72.8,46.0,29.64,SSE,155,7.0,-999.0,39,-99.99,,,0.00,weatherlink.com 1.10,2013-10-09 07:40:00,
2013-10-09 00:55:00,72.5,47.0,29.64,SSE,167,4.0,-999.0,41,-99.99,,,0.00,weatherlink.com 1.10,2013-10-09 07:55:00,
2013-10-09 01:10:00,72.0,48.0,29.64,SSE,167,1.0,-999.0,43,-99.99,,,0.00,weatherlink.com 1.10,2013-10-09 08:10:00,
2013-10-09 01:25:00,72.1,49.0,29.64,South,171,6.0,-999.0,44,-99.99,,,0.00,weatherlink.com 1.10,2013-10-09 08:25:00,
2013-10-09 01:40:00,71.4,49.0,29.63,South,171,6.0,-999.0,45,-99.99,,,0.00,weatherlink.com 1.10,2013-10-09 08:40:00,
2013-10-09 01:55:00,71.2,49.0,29.64,South,171,6.0,-999.0,45,-99.99,,,0.00,weatherlink.com 1.10,2013-10-09 08:55:00,
2013-10-09 02:10:00,71.2,49.0,29.63,South,169,6.0,-999.0,45,-99.99,,,0.00,weatherlink.com 1.10,2013-10-09 09:10:00,
2013-10-09 02:25:00,70.8,46.0,29.63,SSE,164,6.0,-999.0,42,-99.99,,,0.00,weatherlink.com 1.10,2013-10-09 09:25:00,
2013-10-09 02:40:00,70.8,42.0,29.63,South,169,0.0,-999.0,35,-99.99,,,0.00,weatherlink.com 1.10,2013-10-09 09:40:00,
2013-10-09 02:55:00,70.0,44.0,29.62,South,169,7.0,-999.0,39,-99.99,,,0.00,weatherlink.com 1.10,2013-10-09 09:55:00,
2013-10-09 03:10:00,69.3,46.0,29.62,SSE,164,2.0,-999.0,43,-99.99,,,0.00,weatherlink.com 1.10,2013-10-09 10:10:00,
2013-10-09 03:25:00,68.4,47.0,29.62,SSE,163,1.0,-999.0,46,-99.99,,,0.00,weatherlink.com 1.10,2013-10-09 10:25:00,
2013-10-09 03:40:00,67.8,47.0,29.61,SSE,163,5.0,-999.0,47,-99.99,,,0.00,weatherlink.com 1.10,2013-10-09 10:40:00,
2013-10-09 03:55:00,67.5,45.0,29.61,SSE,165,4.0,-999.0,45,-99.99,,,0.00,weatherlink.com 1.10,2013-10-09 10:55:00,
2013-10-09 04:10:00,66.2,43.0,29.61,SSE,165,4.0,-999.0,44,-99.99,,,0.00,weatherlink.com 1.10,2013-10-09 11:10:00,
2013-10-09 04:25:00,65.4,43.0,29.61,SSE,165,6.0,-999.0,45,-99.99,,,0.00,weatherlink.com 1.10,2013-10-09 11:25:00,
2013-10-09 04:40:00,65.0,42.0,29.62,SSE,165,0.0,-999.0,44,-99.99,,,0.00,weatherlink.com 1.10,2013-10-09 11:40:00,
2013-10-09 04:55:00,64.2,42.0,29.62,SSE,165,0.0,-999.0,44,-99.99,,,0.00,weatherlink.com 1.10,2013-10-09 11:55:00,
2013-10-09 05:10:00,63.6,41.0,29.62,SSE,165,0.0,-999.0,44,-99.99,,,0.00,weatherlink.com 1.10,2013-10-09 12:10:00,
2013-10-09 05:25:00,63.6,40.0,29.62,SSE,165,0.0,-999.0,42,-99.99,,,0.00,weatherlink.com 1.10,2013-10-09 12:25:00,
2013-10-09 05:40:00,63.1,39.0,29.63,SSE,165,0.0,-999.0,41,-99.99,,,0.00,weatherlink.com 1.10,2013-10-09 12:40:00,
2013-10-09 05:55:00,62.8,39.0,29.63,SSE,163,0.0,-999.0,41,-99.99,,,0.00,weatherlink.com 1.10,2013-10-09 12:55:00,
2013-10-09 06:10:00,62.7,38.0,29.64,SSE,163,0.0,-999.0,41,-99.99,,,0.00,weatherlink.com 1.10,2013-10-09 13:10:00,
2013-10-09 06:25:00,63.2,38.0,29.64,SSE,163,0.0,-999.0,40,-99.99,,,0.00,weatherlink.com 1.10,2013-10-09 13:25:00,
2013-10-09 06:41:00,63.8,38.0,29.66,SSE,165,0.0,-999.0,39,-99.99,,,0.00,weatherlink.com 1.10,2013-10-09 13:41:00,
2013-10-09 06:56:00,63.4,39.0,29.66,SSE,162,6.0,-999.0,41,-99.99,,,0.00,weatherlink.com 1.10,2013-10-09 13:56:00,
2013-10-09 07:10:00,63.8,39.0,29.66,East,94,5.0,-999.0,40,-99.99,,,0.00,weatherlink.com 1.10,2013-10-09 14:10:00,
2013-10-09 07:26:00,65.2,39.0,29.66,South,176,8.0,-999.0,39,-99.99,,,0.00,weatherlink.com 1.10,2013-10-09 14:26:00,
2013-10-09 07:41:00,64.9,40.0,29.67,South,175,7.0,-999.0,40,-99.99,,,0.00,weatherlink.com 1.10,2013-10-09 14:41:00,
2013-10-09 07:55:00,64.6,40.0,29.68,ESE,120,15.0,-999.0,41,-99.99,,,0.00,weatherlink.com 1.10,2013-10-09 14:55:00,
2013-10-09 08:11:00,64.6,41.0,29.68,SSE,163,7.0,-999.0,42,-99.99,,,0.00,weatherlink.com 1.10,2013-10-09 15:11:00,
2013-10-09 08:25:00,65.1,41.0,29.69,SE,142,1.0,-999.0,42,-99.99,,,0.00,weatherlink.com 1.10,2013-10-09 15:25:00,
2013-10-09 08:41:00,66.4,41.0,29.70,SE,135,8.0,-999.0,40,-99.99,,,0.00,weatherlink.com 1.10,2013-10-09 15:41:00,
2013-10-09 08:55:00,66.0,42.0,29.71,SSE,165,11.0,-999.0,42,-99.99,,,0.00,weatherlink.com 1.10,2013-10-09 15:55:00,
2013-10-09 09:11:00,65.7,43.0,29.71,SSE,164,13.0,-999.0,44,-99.99,,,0.00,weatherlink.com 1.10,2013-10-09 16:11:00,
2013-10-09 09:26:00,67.4,43.0,29.72,South,182,8.0,-999.0,41,-99.99,,,0.00,weatherlink.com 1.10,2013-10-09 16:26:00,
2013-10-09 09:40:00,68.4,42.0,29.71,SSW,203,5.0,-999.0,39,-99.99,,,0.00,weatherlink.com 1.10,2013-10-09 16:40:00,
2013-10-09 09:56:00,68.8,42.0,29.71,South,182,9.0,-999.0,38,-99.99,,,0.00,weatherlink.com 1.10,2013-10-09 16:56:00,
2013-10-09 10:11:00,69.9,42.0,29.71,South,186,9.0,-999.0,36,-99.99,,,0.00,weatherlink.com 1.10,2013-10-09 17:11:00,
2013-10-09 10:26:00,70.8,42.0,29.72,South,180,6.0,-999.0,36,-99.99,,,0.00,weatherlink.com 1.10,2013-10-09 17:26:00,
2013-10-09 10:41:00,70.0,42.0,29.71,South,182,11.0,-999.0,36,-99.99,,,0.00,weatherlink.com 1.10,2013-10-09 17:41:00,
2013-10-09 10:56:00,70.3,41.0,29.72,South,188,10.0,-999.0,35,-99.99,,,0.00,weatherlink.com 1.10,2013-10-09 17:56:00,
2013-10-09 11:11:00,70.7,42.0,29.71,South,177,8.0,-999.0,35,-99.99,,,0.00,weatherlink.com 1.10,2013-10-09 18:11:00,
2013-10-09 11:26:00,71.3,41.0,29.71,SSW,192,8.0,-999.0,34,-99.99,,,0.00,weatherlink.com 1.10,2013-10-09 18:26:00,
2013-10-09 11:41:00,72.5,41.0,29.71,SSW,206,7.0,-999.0,32,-99.99,,,0.00,weatherlink.com 1.10,2013-10-09 18:41:00,
2013-10-09 11:56:00,72.6,41.0,29.71,South,170,7.0,-999.0,32,-99.99,,,0.00,weatherlink.com 1.10,2013-10-09 18:56:00,
2013-10-09 12:11:00,73.1,41.0,29.70,SW,221,4.0,-999.0,32,-99.99,,,0.00,weatherlink.com 1.10,2013-10-09 19:11:00,
2013-10-09 12:26:00,74.3,42.0,29.70,West,275,15.0,-999.0,31,-99.99,,,0.00,weatherlink.com 1.10,2013-10-09 19:26:00,
2013-10-09 12:41:00,74.8,41.0,29.70,SW,236,8.0,-999.0,30,-99.99,,,0.00,weatherlink.com 1.10,2013-10-09 19:41:00,
2013-10-09 12:56:00,74.3,42.0,29.69,WSW,248,4.0,-999.0,31,-99.99,,,0.00,weatherlink.com 1.10,2013-10-09 19:56:00,
2013-10-09 13:11:00,73.9,41.0,29.69,WSW,248,7.0,-999.0,31,-99.99,,,0.00,weatherlink.com 1.10,2013-10-09 20:11:00,
2013-10-09 13:26:00,75.1,41.0,29.68,SW,214,5.0,-999.0,29,-99.99,,,0.00,weatherlink.com 1.10,2013-10-09 20:26:00,
2013-10-09 13:41:00,73.9,41.0,29.68,WSW,248,5.0,-999.0,30,-99.99,,,0.00,weatherlink.com 1.10,2013-10-09 20:41:00,
2013-10-09 13:56:00,73.6,41.0,29.68,SW,222,3.0,-999.0,31,-99.99,,,0.00,weatherlink.com 1.10,2013-10-09 20:56:00,
2013-10-09 14:11:00,72.5,41.0,29.68,West,263,9.0,-999.0,32,-99.99,,,0.00,weatherlink.com 1.10,2013-10-09 21:11:00,
2013-10-09 14:26:00,73.4,42.0,29.68,SW,225,5.0,-999.0,32,-99.99,,,0.00,weatherlink.com 1.10,2013-10-09 21:26:00,
2013-10-09 14:41:00,74.4,41.0,29.67,SSW,207,4.0,-999.0,30,-99.99,,,0.00,weatherlink.com 1.10,2013-10-09 21:41:00,
2013-10-09 14:56:00,73.0,41.0,29.67,West,271,7.0,-999.0,31,-99.99,,,0.00,weatherlink.com 1.10,2013-10-09 21:56:00,
2013-10-09 15:11:00,72.9,40.0,29.67,WSW,244,7.0,-999.0,31,-99.99,,,0.00,weatherlink.com 1.10,2013-10-09 22:11:00,
2013-10-09 15:26:00,72.1,41.0,29.67,SW,234,3.0,-999.0,32,-99.99,,,0.00,weatherlink.com 1.10,2013-10-09 22:26:00,
2013-10-09 15:41:00,72.1,40.0,29.67,SSW,209,5.0,-999.0,31,-99.99,,,0.00,weatherlink.com 1.10,2013-10-09 22:41:00,
2013-10-09 15:57:00,71.9,40.0,29.67,WSW,249,1.0,-999.0,32,-99.99,,,0.00,weatherlink.com 1.10,2013-10-09 22:57:00,
2013-10-09 16:11:00,71.3,41.0,29.66,WSW,248,3.0,-999.0,33,-99.99,,,0.00,weatherlink.com 1.10,2013-10-09 23:11:00,
2013-10-09 16:26:00,70.6,41.0,29.66,West,263,7.0,-999.0,34,-99.99,,,0.00,weatherlink.com 1.10,2013-10-09 23:26:00,
2013-10-09 16:41:00,70.1,41.0,29.66,WSW,245,5.0,-999.0,35,-99.99,,,0.00,weatherlink.com 1.10,2013-10-09 23:41:00,
2013-10-09 16:56:00,69.5,41.0,29.66,West,259,2.0,-999.0,36,-99.99,,,0.00,weatherlink.com 1.10,2013-10-09 23:56:00,
2013-10-09 17:11:00,69.2,41.0,29.66,WSW,242,3.0,-999.0,36,-99.99,,,0.00,weatherlink.com 1.10,2013-10-10 00:11:00,
2013-10-09 17:27:00,68.9,41.0,29.66,WSW,258,2.0,-999.0,36,-99.99,,,0.00,weatherlink.com 1.10,2013-10-10 00:27:00,
2013-10-09 17:41:00,68.8,41.0,29.66,West,259,0.0,-999.0,37,-99.99,,,0.00,weatherlink.com 1.10,2013-10-10 00:41:00,
2013-10-09 17:56:00,68.8,41.0,29.66,West,265,8.0,-999.0,37,-99.99,,,0.00,weatherlink.com 1.10,2013-10-10 00:56:00,
2013-10-09 18:11:00,68.3,42.0,29.66,WSW,247,2.0,-999.0,38,-99.99,,,0.00,weatherlink.com 1.10,2013-10-10 01:11:00,
2013-10-09 18:27:00,67.9,41.0,29.67,WSW,248,9.0,-999.0,38,-99.99,,,0.00,weatherlink.com 1.10,2013-10-10 01:27:00,
2013-10-09 18:42:00,67.5,41.0,29.66,WSW,244,2.0,-999.0,38,-99.99,,,0.00,weatherlink.com 1.10,2013-10-10 01:42:00,
2013-10-09 18:56:00,67.3,41.0,29.67,WSW,242,0.0,-999.0,38,-99.99,,,0.00,weatherlink.com 1.10,2013-10-10 01:56:00,
2013-10-09 19:11:00,67.2,41.0,29.67,WSW,240,4.0,-999.0,38,-99.99,,,0.00,weatherlink.com 1.10,2013-10-10 02:11:00,
2013-10-09 19:26:00,67.1,41.0,29.67,SW,236,2.0,-999.0,38,-99.99,,,0.00,weatherlink.com 1.10,2013-10-10 02:26:00,
2013-10-09 19:42:00,66.9,40.0,29.68,SW,226,2.0,-999.0,38,-99.99,,,0.00,weatherlink.com 1.10,2013-10-10 02:42:00,
2013-10-09 19:57:00,66.5,41.0,29.68,SSW,203,5.0,-999.0,39,-99.99,,,0.00,weatherlink.com 1.10,2013-10-10 02:57:00,
2013-10-09 20:11:00,65.9,41.0,29.69,SW,234,3.0,-999.0,40,-99.99,,,0.00,weatherlink.com 1.10,2013-10-10 03:11:00,
2013-10-09 20:26:00,65.0,41.0,29.69,SW,214,3.0,-999.0,42,-99.99,,,0.00,weatherlink.com 1.10,2013-10-10 03:26:00,
2013-10-09 20:41:00,64.7,42.0,29.70,SSW,199,2.0,-999.0,43,-99.99,,,0.00,weatherlink.com 1.10,2013-10-10 03:41:00,
2013-10-09 20:59:00,64.5,41.0,29.71,WSW,240,3.0,-999.0,42,-99.99,,,0.00,weatherlink.com 1.10,2013-10-10 03:59:00,
2013-10-09 21:11:00,64.1,40.0,29.71,SW,227,2.0,-999.0,42,-99.99,,,0.00,weatherlink.com 1.10,2013-10-10 04:11:00,
2013-10-09 21:26:00,63.5,40.0,29.72,WSW,244,4.0,-999.0,43,-99.99,,,0.00,weatherlink.com 1.10,2013-10-10 04:26:00,
2013-10-09 21:41:00,63.1,41.0,29.73,SSW,211,0.0,-999.0,44,-99.99,,,0.00,weatherlink.com 1.10,2013-10-10 04:41:00,
2013-10-09 21:56:00,62.7,41.0,29.73,South,190,1.0,-999.0,45,-99.99,,,0.00,weatherlink.com 1.10,2013-10-10 04:56:00,
2013-10-09 22:11:00,62.5,41.0,29.72,South,190,2.0,-999.0,46,-99.99,,,0.00,weatherlink.com 1.10,2013-10-10 05:11:00,
2013-10-09 22:26:00,62.4,41.0,29.72,South,171,1.0,-999.0,46,-99.99,,,0.00,weatherlink.com 1.10,2013-10-10 05:26:00,
2013-10-09 22:41:00,62.1,41.0,29.73,South,175,2.0,-999.0,47,-99.99,,,0.00,weatherlink.com 1.10,2013-10-10 05:41:00,
2013-10-09 22:56:00,62.5,42.0,29.73,SW,221,4.0,-999.0,47,-99.99,,,0.00,weatherlink.com 1.10,2013-10-10 05:56:00,
2013-10-09 23:12:00,62.6,42.0,29.72,SW,219,3.0,-999.0,47,-99.99,,,0.00,weatherlink.com 1.10,2013-10-10 06:12:00,
2013-10-09 23:27:00,63.0,41.0,29.72,SW,217,2.0,-999.0,45,-99.99,,,0.00,weatherlink.com 1.10,2013-10-10 06:27:00,
2013-10-09 23:42:00,63.1,41.0,29.73,SW,236,5.0,-999.0,44,-99.99,,,0.00,weatherlink.com 1.10,2013-10-10 06:42:00,
2013-10-09 23:57:00,62.0,44.0,29.73,SW,234,2.0,-999.0,52,-99.99,,,0.00,weatherlink.com 1.10,2013-10-10 06:57:00,